Location: Balagbag Mahabang Kahoy
(14.1562°N, 120.9200°E)
Time: 05:12:26
(UTC+00:00)

ATLAS CENTAUR Rocket - Pass Details

Date: 16 January 2026
Orbit: 685 x 36552 km, 28.1° (Epoch: 14 February)

Event Time Altitude Azimuth Distance (km) Brightness Sun altitude
Exits shadow 20:04:14 34° 6° (N) 2,068 4.0 -33.1°
Maximum altitude 20:05:31 36° 26° (NNE) 2,270 4.4 -32.9°
Drops below altitude 10° 20:25:30 10° 91° (E) 9,660 8.5 -28.2°
Sets 20:54:16 0° 100° (E) 18,042 10.5 -21.5°
